Stündliche Wetter Otopeni

Heute, 14 April, Mittwoch

Zeit Temperatur Niederschläge Wind Luftdruck Luftfeuchtigkeit
00:00 +11°C° 0.3 mm 3 m/S 751 mmHg 77%
01:00 +12°C° 0.3 mm 2 m/S 750 mmHg 79%
02:00 +10°C° 0 mm 2 m/S 750 mmHg 79%
03:00 +10°C° 0.7 mm 3 m/S 750 mmHg 82%
04:00 +9°C° 0.7 mm 3 m/S 750 mmHg 86%
05:00 +9°C° 0.7 mm 3 m/S 750 mmHg 89%
06:00 +9°C° 1 mm 3 m/S 750 mmHg 90%
07:00 +9°C° 1 mm 3 m/S 750 mmHg 92%
08:00 +8°C° 0 mm 3 m/S 750 mmHg 92%
09:00 +8°C° 0.4 mm 3 m/S 750 mmHg 92%
10:00 +8°C° 0.4 mm 3 m/S 750 mmHg 91%
11:00 +8°C° 0.4 mm 3 m/S 751 mmHg 90%
12:00 +7°C° 0.4 mm 4 m/S 751 mmHg 88%
13:00 +7°C° 0.4 mm 5 m/S 751 mmHg 86%
14:00 +7°C° 0 mm 6 m/S 751 mmHg 82%
15:00 +7°C° 0 mm 6 m/S 751 mmHg 81%
16:00 +5°C° 0 mm 6 m/S 751 mmHg 80%
17:00 +5°C° 0 mm 6 m/S 751 mmHg 80%
18:00 +5°C° 0.1 mm 6 m/S 751 mmHg 81%
19:00 +6°C° 0.1 mm 5 m/S 751 mmHg 82%
20:00 +5°C° 0.1 mm 5 m/S 751 mmHg 83%
21:00 +5°C° 0.2 mm 5 m/S 752 mmHg 84%
22:00 +5°C° 0.2 mm 5 m/S 752 mmHg 85%
23:00 +5°C° 0.2 mm 5 m/S 752 mmHg 86%

Morgen, 15 April, Donnerstag

Zeit Temperatur Niederschläge Wind Luftdruck Luftfeuchtigkeit
00:00 +3°C° 0.1 mm 5 m/S 752 mmHg 86%
01:00 +3°C° 0.1 mm 5 m/S 752 mmHg 86%
02:00 +3°C° 0.1 mm 5 m/S 753 mmHg 86%
03:00 +3°C° 0 mm 5 m/S 753 mmHg 85%
04:00 +2°C° 0 mm 5 m/S 753 mmHg 83%
05:00 +2°C° 0 mm 5 m/S 753 mmHg 82%
06:00 +3°C° 0 mm 5 m/S 753 mmHg 80%
07:00 +3°C° 0 mm 5 m/S 754 mmHg 77%
08:00 +3°C° 0 mm 5 m/S 754 mmHg 75%
09:00 +6°C° 0 mm 5 m/S 754 mmHg 68%
10:00 +8°C° 0 mm 5 m/S 754 mmHg 62%
11:00 +9°C° 0 mm 5 m/S 754 mmHg 56%
12:00 +10°C° 0 mm 5 m/S 754 mmHg 54%
13:00 +12°C° 0 mm 5 m/S 753 mmHg 52%
14:00 +12°C° 0 mm 5 m/S 753 mmHg 49%
15:00 +12°C° 0 mm 5 m/S 753 mmHg 52%
16:00 +12°C° 0 mm 5 m/S 753 mmHg 54%
17:00 +10°C° 0 mm 5 m/S 753 mmHg 56%
18:00 +9°C° 0 mm 5 m/S 753 mmHg 58%
19:00 +8°C° 0 mm 4 m/S 754 mmHg 60%
20:00 +7°C° 0 mm 4 m/S 754 mmHg 62%
21:00 +7°C° 0 mm 4 m/S 754 mmHg 63%
22:00 +7°C° 0 mm 3 m/S 754 mmHg 63%
23:00 +7°C° 0 mm 3 m/S 754 mmHg 64%

übermorgen, 16 April, Freitag

Zeit Temperatur Niederschläge Wind Luftdruck Luftfeuchtigkeit
00:00 +5°C° 0 mm 3 m/S 754 mmHg 66%
01:00 +5°C° 0 mm 3 m/S 754 mmHg 69%
02:00 +4°C° 0 mm 3 m/S 754 mmHg 71%
03:00 +4°C° 0 mm 3 m/S 754 mmHg 73%
04:00 +3°C° 0 mm 3 m/S 754 mmHg 75%
05:00 +3°C° 0 mm 3 m/S 754 mmHg 76%
06:00 +4°C° 0 mm 3 m/S 755 mmHg 73%
07:00 +4°C° 0 mm 4 m/S 755 mmHg 69%
08:00 +5°C° 0 mm 4 m/S 755 mmHg 66%
09:00 +6°C° 0 mm 4 m/S 755 mmHg 61%
10:00 +8°C° 0 mm 4 m/S 756 mmHg 57%
11:00 +10°C° 0 mm 4 m/S 756 mmHg 52%
12:00 +11°C° 0 mm 4 m/S 755 mmHg 48%
13:00 +12°C° 0 mm 4 m/S 755 mmHg 44%
14:00 +13°C° 0 mm 4 m/S 755 mmHg 40%
15:00 +13°C° 0 mm 4 m/S 755 mmHg 39%
16:00 +13°C° 0 mm 4 m/S 755 mmHg 39%
17:00 +13°C° 0 mm 3 m/S 755 mmHg 39%
18:00 +11°C° 0 mm 3 m/S 755 mmHg 45%
19:00 +10°C° 0 mm 2 m/S 756 mmHg 51%
20:00 +9°C° 0 mm 2 m/S 756 mmHg 56%
21:00 +9°C° 0 mm 1 m/S 756 mmHg 59%
22:00 +8°C° 0 mm 1 m/S 756 mmHg 61%
23:00 +8°C° 0 mm 1 m/S 756 mmHg 63%

17 April, Samstag

Zeit Temperatur Niederschläge Wind Luftdruck Luftfeuchtigkeit
00:00 +7°C° 0 mm 1 m/S 756 mmHg 64%
01:00 +7°C° 0 mm 1 m/S 756 mmHg 66%
02:00 +7°C° 0 mm 1 m/S 756 mmHg 67%
03:00 +7°C° 0 mm 1 m/S 756 mmHg 66%
04:00 +7°C° 0 mm 1 m/S 756 mmHg 66%
05:00 +6°C° 0 mm 2 m/S 756 mmHg 66%
06:00 +7°C° 0 mm 2 m/S 756 mmHg 64%
07:00 +8°C° 0 mm 3 m/S 756 mmHg 62%
08:00 +8°C° 0 mm 3 m/S 756 mmHg 61%
09:00 +8°C° 0 mm 4 m/S 756 mmHg 58%
10:00 +11°C° 0 mm 4 m/S 756 mmHg 55%
11:00 +12°C° 0 mm 4 m/S 756 mmHg 51%
12:00 +12°C° 0 mm 4 m/S 755 mmHg 53%
13:00 +12°C° 0 mm 4 m/S 755 mmHg 55%
14:00 +13°C° 0 mm 4 m/S 754 mmHg 57%
15:00 +12°C° 0.1 mm 4 m/S 754 mmHg 62%
16:00 +11°C° 0.1 mm 4 m/S 754 mmHg 67%
17:00 +10°C° 0.1 mm 4 m/S 754 mmHg 72%
18:00 +8°C° 0.3 mm 5 m/S 754 mmHg 77%
19:00 +7°C° 0.3 mm 5 m/S 754 mmHg 82%
20:00 +6°C° 0.3 mm 5 m/S 754 mmHg 87%
21:00 +6°C° 0.7 mm 5 m/S 754 mmHg 88%
22:00 +6°C° 0.7 mm 5 m/S 754 mmHg 89%
23:00 +5°C° 0.7 mm 5 m/S 754 mmHg 91%

18 April, Sonntag

Zeit Temperatur Niederschläge Wind Luftdruck Luftfeuchtigkeit
00:00 +5°C° 0.5 mm 5 m/S 754 mmHg 91%
01:00 +5°C° 0.5 mm 5 m/S 754 mmHg 91%
02:00 +5°C° 0.5 mm 5 m/S 754 mmHg 91%
03:00 +4°C° 0.2 mm 6 m/S 754 mmHg 91%
04:00 +4°C° 0.2 mm 6 m/S 754 mmHg 91%
05:00 +4°C° 0.2 mm 6 m/S 754 mmHg 91%
06:00 +4°C° 0.2 mm 6 m/S 754 mmHg 91%
07:00 +4°C° 0.2 mm 6 m/S 754 mmHg 91%
08:00 +4°C° 0.2 mm 6 m/S 754 mmHg 91%
09:00 +4°C° 0.1 mm 6 m/S 755 mmHg 91%
10:00 +4°C° 0.1 mm 6 m/S 755 mmHg 91%
11:00 +5°C° 0.1 mm 5 m/S 755 mmHg 91%
12:00 +5°C° 0 mm 6 m/S 755 mmHg 91%
13:00 +5°C° 0 mm 6 m/S 755 mmHg 91%
14:00 +5°C° 0 mm 6 m/S 755 mmHg 91%
15:00 +6°C° 0 mm 5 m/S 755 mmHg 91%
16:00 +6°C° 0 mm 5 m/S 755 mmHg 91%
17:00 +6°C° 0 mm 5 m/S 755 mmHg 91%
18:00 +6°C° 0 mm 5 m/S 756 mmHg 91%
19:00 +6°C° 0 mm 4 m/S 756 mmHg 92%
20:00 +6°C° 0 mm 4 m/S 756 mmHg 92%
21:00 +6°C° 0 mm 4 m/S 756 mmHg 93%
22:00 +6°C° 0 mm 4 m/S 756 mmHg 93%
23:00 +7°C° 0 mm 3 m/S 756 mmHg 94%

19 April, Montag

Zeit Temperatur Niederschläge Wind Luftdruck Luftfeuchtigkeit
00:00 +7°C° 0.1 mm 3 m/S 756 mmHg 94%
01:00 +7°C° 0.1 mm 3 m/S 755 mmHg 94%
02:00 +7°C° 0.1 mm 2 m/S 755 mmHg 94%
03:00 +7°C° 0 mm 2 m/S 755 mmHg 93%
04:00 +7°C° 0 mm 2 m/S 755 mmHg 93%
05:00 +7°C° 0 mm 3 m/S 754 mmHg 93%
06:00 +7°C° 0 mm 3 m/S 754 mmHg 92%
07:00 +7°C° 0 mm 3 m/S 754 mmHg 91%
08:00 +6°C° 0 mm 4 m/S 754 mmHg 90%
09:00 +7°C° 0 mm 4 m/S 754 mmHg 88%
10:00 +8°C° 0 mm 5 m/S 754 mmHg 86%
11:00 +8°C° 0 mm 5 m/S 753 mmHg 85%
12:00 +8°C° 0 mm 5 m/S 753 mmHg 84%
13:00 +8°C° 0 mm 6 m/S 752 mmHg 84%
14:00 +8°C° 0 mm 6 m/S 752 mmHg 84%
15:00 +8°C° 0.7 mm 6 m/S 751 mmHg 85%
16:00 +8°C° 0.7 mm 7 m/S 750 mmHg 87%
17:00 +6°C° 0.7 mm 7 m/S 750 mmHg 89%
18:00 +6°C° 1.3 mm 7 m/S 749 mmHg 90%
19:00 +6°C° 1.3 mm 7 m/S 748 mmHg 90%
20:00 +6°C° 1.3 mm 7 m/S 747 mmHg 91%
21:00 +6°C° 1.5 mm 8 m/S 746 mmHg 91%
22:00 +6°C° 1.5 mm 8 m/S 745 mmHg 91%
23:00 +6°C° 1.5 mm 8 m/S 744 mmHg 90%
Mehr zeigen

Wir brauchen deine Erlaubnis

Meteoprog und unser Service Anbieter werden persönliche Daten aufbewahren, so wie Cookies, Geräte Bezeichnung oder ähnliche Technologien von deinem Gerät und Prozess, so wie Persönliche Daten Inhalte und Werbungen, genauso wie social Media und den Verkehr zu analysieren.

  • Aufbewahrung und/oder Zugang zu deiner Geräte Informationen.

    Cookies, Geräte Bezeichnung oder andere Informationen, können aufbewahrt oder Zugang zu deinem Gerät erhalten, für den Grund, der oben angegeben wird.

  • Personalisierte Werbung und Inhalte, Messungen, Einblick in das Publikum und Produkt Entwicklung.

    Werbungen und Inhalte können personalisiert werden, basierend auf ein Profil. Mehr Daten können besser personalisierte Werbungen und Inhalte hinzufügen. Werbung und Inhalte können gezeigt und gemessen werden. Einblicke über das Publikum, welche die Werbung gesehen haben und den Inhalt, können abgeleitet werden. So wie Daten können genutzt werden, um es zu verbessern oder die Benutzer Erfahrung zu verbessern das System und die Software.

Wenn du “Ich stimme zu” klickst, erlaubst du uns, die Cookies zu benutzen die Geräte Bezeichnung, den Web oder ähnliche Technologien zu benutzen. Deine Settings, können in deinem Gerät bei deinem Browser geändert werden.

Für den bestimmten Zweck, berechtigten Interessen beruhen darauf, mehr als auf den Inhalt. Du kannst mehr darüber in unseren Privaten und Cookie Politik lesen.